Hundvaag 1 weather for Dec 1998
Month no. 138
Obs.
Da.
Temp. Dew Point Precip. Wind
Speed
Wind gusts Cloud cover Press. Humidity Wind dir. Sunny OPT
01.12.1998 6,7   0,0     0          
02.12.1998 6,6   5,0     0          
03.12.1998 5,3   8,0     0       1  
04.12.1998 2,5   6,0     8       1  
05.12.1998 -0,9   0,0     9       1  
06.12.1998 -1,9   0,0     10       1  
07.12.1998 -6,4   0,0     10       1  
08.12.1998 -2,0   0,0     0          
09.12.1998 5,7   1,0     0       1  
10.12.1998 5,7   0,0     0          
11.12.1998 4,1   0,0     0          
12.12.1998 3,4   0,0     0          
13.12.1998 5,7   0,0     1          
14.12.1998 6,0   5,0     0          
15.12.1998 6,1   9,0     9       1  
16.12.1998 4,8   0,0     8          
17.12.1998 7,8   2,0     0          
18.12.1998 6,6   4,0     8       1  
19.12.1998 3,8   2,0     2          
20.12.1998 1,4   1,0     9       1  
21.12.1998 0,3   0,0     10       1  
22.12.1998 2,2   0,0     0          
23.12.1998 5,4   0,0     0          
24.12.1998 1,9   9,0     2          
25.12.1998 6,9   15,0     7       1  
26.12.1998 4,6   3,0     0       1  
27.12.1998 6,4   15,0     0          
28.12.1998 4,7   12,0     1          
29.12.1998 1,4   11,0     9          
30.12.1998 4,8   0,0     0       1  
31.12.1998 7,9   0,0     0       1  
Avrg/Sum 3,8   108,0     3,3       14